| time (UTC) | temp F | wind direction | speed knots | gust knots | rain 1hr in | rain 24hr in | rain mn in | humidity % | barometer mb |
| 20260505091616 | 45 | 241 | 6.1 | 13.0 | 0.00 | 0.39 | 0.00 | 84 | 1008.7 |
| 20260505090104 | 44 | 244 | 4.3 | 9.6 | 0.00 | 0.39 | 0.00 | 85 | 1008.5 |
| 20260505084602 | 44 | 285 | 3.5 | 8.7 | 0.00 | 0.39 | 0.00 | 85 | 1008.3 |
| 20260505083059 | 44 | 238 | 3.5 | 7.0 | 0.00 | 0.39 | 0.00 | 85 | 1008.1 |
| 20260505081555 | 44 | 244 | 3.5 | 7.8 | 0.00 | 0.39 | 0.00 | 85 | 1007.9 |
| 20260505080052 | 45 | 253 | 2.6 | 7.0 | 0.00 | 0.39 | 0.00 | 84 | 1007.8 |
| 20260505074638 | 45 | 269 | 5.2 | 10.4 | 0.00 | 0.43 | 0.00 | 84 | 1007.5 |
| 20260505073048 | 45 | 257 | 4.3 | 9.6 | 0.00 | 0.43 | 0.00 | 84 | 1007.3 |
| 20260505071544 | 45 | 273 | 5.2 | 8.7 | 0.00 | 0.43 | 0.00 | 84 | 1007.0 |
| 20260505070040 | 45 | 282 | 3.5 | 9.6 | 0.00 | 0.46 | 0.00 | 84 | 1006.8 |
| 20260505064529 | 45 | 239 | 3.5 | 8.7 | 0.00 | 0.46 | 0.00 | 84 | 1006.7 |
| 20260505063035 | 45 | 261 | 5.2 | 7.8 | 0.00 | 0.46 | 0.00 | 84 | 1006.6 |
| 20260505061528 | 44 | 269 | 2.6 | 7.0 | 0.00 | 0.46 | 0.00 | 84 | 1006.3 |
| 20260505060043 | 45 | 244 | 3.5 | 8.7 | 0.00 | 0.49 | 0.00 | 84 | 1005.9 |
| 20260505054521 | 45 | 253 | 4.3 | 8.7 | 0.00 | 0.49 | 0.00 | 84 | 1005.6 |
| 20260505053015 | 45 | 255 | 4.3 | 11.3 | 0.00 | 0.49 | 0.00 | 84 | 1005.4 |
| 20260505051514 | 45 | 257 | 3.5 | 8.7 | 0.00 | 0.49 | 0.00 | 84 | 1005.2 |
| 20260505041506 | 46 | 277 | 1.7 | 7.0 | 0.00 | 0.51 | 0.00 | 84 | 1004.6 |
| 20260505034556 | 46 | 275 | 2.6 | 6.1 | 0.00 | 0.52 | 0.00 | 83 | 1004.3 |
| 20260505033054 | 46 | 277 | 3.5 | 7.8 | 0.00 | 0.52 | 0.00 | 83 | 1004.0 |
| 20260505031552 | 47 | 259 | 2.6 | 7.8 | 0.00 | 0.52 | 0.00 | 82 | 1003.8 |
| 20260505030108 | 47 | 236 | 3.5 | 7.0 | 0.00 | 0.52 | 0.00 | 81 | 1003.6 |
| 20260505024549 | 48 | 258 | 2.6 | 10.4 | 0.00 | 0.54 | 0.52 | 80 | 1003.4 |
| 20260505023044 | 48 | 265 | 2.6 | 7.0 | 0.00 | 0.54 | 0.52 | 77 | 1003.1 |
| 20260505021544 | 49 | 275 | 2.6 | 7.0 | 0.00 | 0.54 | 0.52 | 73 | 1003.0 |
| 20260505020043 | 49 | 196 | 3.5 | 7.8 | 0.00 | 0.54 | 0.52 | 72 | 1002.8 |
| 20260505014602 | 49 | 221 | 1.7 | 6.1 | 0.00 | 0.83 | 0.52 | 72 | 1002.6 |
| 20260505013049 | 49 | 273 | 4.3 | 8.7 | 0.00 | 0.83 | 0.52 | 72 | 1002.5 |
| 20260505011543 | 47 | 268 | 6.1 | 9.6 | 0.00 | 0.83 | 0.52 | 75 | 1002.6 |
| 20260505010050 | 41 | 282 | 2.6 | 4.3 | 0.00 | 1.15 | 0.52 | 83 | 1002.5 |
| 20260505004546 | 42 | 212 | 0.0 | 1.7 | 0.00 | 1.15 | 0.52 | 79 | 1002.1 |
| 20260505003051 | 44 | 212 | 0.9 | 3.5 | 0.00 | 1.15 | 0.52 | 76 | 1002.1 |
| 20260505001534 | 46 | 212 | 0.0 | 5.2 | 0.00 | 1.15 | 0.52 | 72 | 1002.1 |
| 20260505000035 | 46 | 251 | 2.6 | 7.0 | 0.00 | 1.39 | 0.52 | 70 | 1001.9 |
| 20260504234529 | 47 | 244 | 2.6 | 9.6 | 0.00 | 1.39 | 0.52 | 69 | 1001.6 |
| 20260504233029 | 47 | 282 | 1.7 | 8.7 | 0.00 | 1.39 | 0.52 | 69 | 1001.2 |
| 20260504231527 | 47 | 253 | 2.6 | 8.7 | 0.00 | 1.39 | 0.52 | 68 | 1000.9 |
| 20260504230025 | 48 | 277 | 3.5 | 7.8 | 0.00 | 1.71 | 0.52 | 68 | 1000.7 |
| 20260504224522 | 49 | 250 | 3.5 | 7.0 | 0.00 | 1.71 | 0.52 | 67 | 1000.5 |
| 20260504223022 | 49 | 250 | 3.5 | 7.8 | 0.00 | 1.71 | 0.52 | 66 | 1000.4 |
| 20260504221522 | 50 | 251 | 2.6 | 7.8 | 0.00 | 1.71 | 0.52 | 66 | 1000.2 |
| 20260504220018 | 50 | 242 | 4.3 | 8.7 | 0.00 | 1.88 | 0.52 | 66 | 1000.2 |
| 20260504214518 | 51 | 223 | 4.3 | 8.7 | 0.00 | 1.88 | 0.52 | 65 | 999.9 |
| 20260504213023 | 52 | 281 | 5.2 | 9.6 | 0.00 | 1.88 | 0.52 | 65 | 999.8 |
| 20260504211529 | 51 | 238 | 3.5 | 11.3 | 0.00 | 1.88 | 0.52 | 67 | 999.5 |
| 20260504210015 | 51 | 284 | 6.1 | 11.3 | 0.00 | 1.94 | 0.52 | 67 | 999.5 |
| 20260504204515 | 52 | 258 | 7.0 | 14.8 | 0.00 | 1.94 | 0.52 | 67 | 999.3 |
| 20260504203010 | 51 | 310 | 7.0 | 13.9 | 0.00 | 1.94 | 0.52 | 69 | 999.5 |
| 20260504201506 | 51 | 314 | 6.1 | 11.3 | 0.00 | 1.94 | 0.52 | 69 | 999.1 |
| 20260504200006 | 51 | 261 | 6.1 | 15.6 | 0.00 | 2.00 | 0.52 | 70 | 998.8 |
| 20260504194606 | 51 | 295 | 5.2 | 14.8 | 0.00 | 2.00 | 0.52 | 71 | 998.4 |
| 20260504193107 | 51 | 228 | 5.2 | 12.2 | 0.00 | 2.00 | 0.52 | 72 | 998.0 |
| 20260504191608 | 50 | 244 | 8.7 | 13.9 | 0.00 | 2.00 | 0.52 | 74 | 997.6 |
| 20260504190104 | 49 | 235 | 3.5 | 10.4 | 0.00 | 2.00 | 0.52 | 77 | 997.4 |
| 20260504184552 | 49 | 264 | 8.7 | 17.4 | 0.00 | 2.00 | 0.52 | 77 | 996.9 |
| 20260504183041 | 48 | 287 | 6.1 | 12.2 | 0.00 | 2.00 | 0.52 | 80 | 996.7 |
| 20260504181538 | 46 | 243 | 6.1 | 11.3 | 0.00 | 2.00 | 0.52 | 81 | 996.5 |
| 20260504180035 | 46 | 301 | 7.0 | 14.8 | 0.00 | 2.00 | 0.52 | 82 | 996.2 |
| 20260504174536 | 46 | 265 | 6.1 | 18.2 | 0.00 | 2.00 | 0.52 | 83 | 995.9 |
| 20260504173031 | 45 | 280 | 5.2 | 20.0 | 0.00 | 2.00 | 0.52 | 84 | 995.7 |
| 20260504171529 | 45 | 243 | 7.8 | 15.6 | 0.00 | 2.00 | 0.52 | 86 | 995.2 |